Location: Melque
(41.0517°N, 4.4694°W)
Time: 19:14:09
(UTC+00:00)

Meteor 1-20 Rocket - Pass Details

Date: 11 March 2026
Orbit: 817 x 891 km, 81.2° (Epoch: 14 April)

Event Time Altitude Azimuth Distance (km) Brightness Sun altitude
Rises 19:22:03 0° 200° (SSW) 3,474 7.6 -12.5°
Reaches altitude 10° 19:24:31 10° 205° (SSW) 2,544 6.9 -13.0°
Maximum altitude 19:30:13 56° 283° (WNW) 1,053 5.1 -14.0°
Drops below altitude 10° 19:35:58 10° 1° (N) 2,563 6.8 -15.1°
Sets 19:38:29 0° 6° (N) 3,502 7.5 -15.6°
